Roanoke, VA

6:15 AM EDT on August 19, 2017 (GMT -0400)
Roanoke Regional-Woodrum

Weather History for KROA - September, 2013

Change the Weather History Date:

Sunday, September 29, 2013

  Actual Average Record
Temperature  
Mean Temperature 61 °F 63 °F  
Max Temperature 74 °F 74 °F 93 °F (1953)
Min Temperature 48 °F 52 °F 32 °F (1942)
Degree Days  
Heating Degree Days 4 4  
Month to date heating degree days 33 42  
Since 1 July heating degree days 34 43  
Cooling Degree Days 0 2  
Month to date cooling degree days 126 137  
Year to date cooling degree days 1186 1184  
Growing Degree Days 10 (Base 50)    
Moisture  
Dew Point 50 °F    
Average Humidity 71    
Maximum Humidity 100    
Minimum Humidity 41    
Precipitation  
Precipitation 0.00 in 0.12 in 3.45 in (1924)
Month to date precipitation 1.13 3.77  
Year to date precipitation 43.44 31.90  
Snow  
Snow 0.00 in - - ()
Month to date snowfall 0.0  
Since 1 July snowfall 0.0  
Since 1 September snowfall 0.0  
Snow Depth 0.00 in    
Sea Level Pressure  
Sea Level Pressure 30.15 in    
Wind  
Wind Speed 2 mph (East)    
Max Wind Speed 12 mph    
Max Gust Speed 14 mph    
Visibility 10 miles    
Events      
T = Trace of Precipitation, MM = Missing Value Source: NWS Daily Summary

Daily Weather History Graph

Daily Weather History Graph

Search for Another Location

Airport or City:

Trip Planner

Search our weather history database for the weather conditions in past years. The results will help you decide how hot, cold, wet, or windy it might be!

Date:

Astronomy

Sep. 29, 2013 Rise Set
Actual Time 7:13 AM EDT 7:05 PM EDT
Civil Twilight 6:47 AM EDT 7:31 PM EDT
Nautical Twilight 6:17 AM EDT 8:01 PM EDT
Astronomical Twilight 5:47 AM EDT 8:32 PM EDT
Moon 1:59 AM EDT (9/29) 3:55 PM EDT (9/29)
Length of Visible Light 12h 43m
Length of Day
11h 51m
Waning Crescent, 27% of the Moon is Illuminated
Sep 29
Waning Crescent
Oct 4
New
Oct 11
First Quarter
Oct 18
Full
Oct 26
Last Quarter

Hourly Weather History & Observations

Time (EDT) Temp. Dew Point Humidity Pressure Visibility Wind Dir Wind Speed Gust Speed Precip Events Conditions
12:54 AM 55.9 °F 52.0 °F 87% 30.23 in 10.0 mi NE 3.5 mph - N/A   Overcast
1:54 AM 54.0 °F 52.0 °F 93% 30.22 in 10.0 mi Calm Calm - N/A   Overcast
2:54 AM 52.0 °F 50.0 °F 93% 30.21 in 10.0 mi Calm Calm - N/A   Mostly Cloudy
3:54 AM 52.0 °F 51.1 °F 97% 30.21 in 10.0 mi Calm Calm - N/A   Overcast
4:54 AM 52.0 °F 50.0 °F 93% 30.20 in 10.0 mi Calm Calm - N/A   Overcast
5:54 AM 50.0 °F 48.9 °F 96% 30.21 in 10.0 mi Calm Calm - N/A   Clear
6:54 AM 48.9 °F 48.0 °F 97% 30.21 in 10.0 mi WNW 4.6 mph - N/A   Clear
7:54 AM 52.0 °F 48.9 °F 89% 30.21 in 10.0 mi Calm Calm - N/A   Mostly Cloudy
8:54 AM 55.9 °F 51.1 °F 84% 30.22 in 10.0 mi Calm Calm - N/A   Clear
9:54 AM 57.9 °F 51.1 °F 78% 30.21 in 10.0 mi Calm Calm - N/A   Clear
10:54 AM 63.0 °F 50.0 °F 63% 30.19 in 10.0 mi Calm Calm - N/A   Clear
11:54 AM 66.9 °F 48.0 °F 51% 30.17 in 10.0 mi Calm Calm - N/A   Partly Cloudy
12:54 PM 68.0 °F 48.9 °F 50% 30.16 in 10.0 mi North 5.8 mph - N/A   Clear
1:54 PM 69.1 °F 50.0 °F 51% 30.12 in 10.0 mi Variable 4.6 mph - N/A   Partly Cloudy
2:54 PM 71.1 °F 48.9 °F 45% 30.09 in 10.0 mi Calm Calm - N/A   Partly Cloudy
3:54 PM 73.0 °F 48.0 °F 41% 30.08 in 10.0 mi NNE 11.5 mph - N/A   Scattered Clouds
4:54 PM 69.1 °F 51.1 °F 53% 30.08 in 10.0 mi SE 9.2 mph - N/A   Scattered Clouds
5:54 PM 69.1 °F 50.0 °F 51% 30.09 in 10.0 mi ESE 9.2 mph - N/A   Clear
6:54 PM 64.0 °F 50.0 °F 60% 30.10 in 10.0 mi SSE 4.6 mph - N/A   Clear
7:54 PM 64.0 °F 51.1 °F 63% 30.10 in 10.0 mi SE 3.5 mph - N/A   Clear
8:54 PM 61.0 °F 51.1 °F 70% 30.09 in 10.0 mi Calm Calm - N/A   Clear
9:54 PM 59.0 °F 52.0 °F 78% 30.10 in 10.0 mi Calm Calm - N/A   Clear
10:54 PM 57.9 °F 53.1 °F 84% 30.10 in 10.0 mi Calm Calm - N/A   Clear
11:54 PM 57.0 °F 52.0 °F 83% 30.09 in 10.0 mi SE 3.5 mph - N/A   Overcast